RH
50 48 32 30 32 28 30 34 38 44 37 44 50 53 50 48 58 76 86 96 97 90 78 67 62 53 78 52 46 52 64 42 59 35 43 37 36 35 34 35 37 36 32 58
38 34 45 42 34 34 30 33 31 37 43 36 38 40 40 40 39 41 42 44 50 63 80 95 97 94 85 78 79 76 79 78 73 70 71 66 66 54 54 53 57 64 45 87
35 33 41 41 41 33 34 40 37 36 42 58 55 56 57 50 45 54 55 51 52 51 53 54 57 50 57 70 82 83 82 81 81 82 92 88 87 82 77 73 79 55 97 69
45 34 37 40 44 48 35 36 47 44 39 39 38 58 70 81 74 67 54 51 58 59 62 70 54 51 64 64 49 56 46 42 40 48 66 77 86 86 89 72 72 65 93 76
71 69 46 39 47 51 43 44 60 50 49 55 58 33 38 43 47 59 66 80 80 67 61 60 53 50 49 45 44 46 49 51 44 48 45 47 49 70 69 52 56 55 59 65
88 93 78 72 65 39 43 46 53 51 58 48 50 66 75 51 46 45 42 52 54 65 70 80 92 90 76 70 74 76 60 61 65 79 91 81 89 100 95 73 61 54 62 66
80 90 100 100 97 83 78 65 71 71 55 57 47 47 58 74 78 80 85 86 63 53 49 47 47 81 95 100 98 86 72 70 58 54 53 50 78 81 99 100 100 100 86 72
75 79 78 78 90 100 100 100 89 77 69 66 68 65 62 72 60 67 83 92 98 100 86 58 56 71 71 73 92 100 99 83 78 87 77 63 62 74 61 66 56 73 84 88
32 39 60 76 51 46 38 79 98 100 100 79 73 69 75 71 81 58 50 58 53 59 86 99 80 66 61 62 74 86 78 88 49 52 53 66 73 70 81 77 72 75 72 68
40 34 54 62 93 81 51 40 49 72 89 91 100 100 94 72 87 93 80 78 70 62 46 49 60 74 83 77 71 61 59 67 78 84 68 54 71 86 92 96 96 96 84 81
35 30 44 100 100 95 93 84 38 47 74 100 100 100 100 100 100 100 100 100 100 100 100 100 78 48 51 67 94 100 100 100 100 100 90 90 85 90 94 88 83 81 85 100
35 47 43 79 100 99 46 47 48 36 46 75 93 99 100 100 100 100 84 56 58 84 96 98 100 99 96 93 74 100 100 100 95 78 91 100 100 100 97 78 81 89 99 100
48 41 43 46 45 83 85 45 50 44 35 39 49 74 87 77 75 91 100 95 67 64 96 96 92 90 91 91 93 84 85 95 99 99 100 95 81 96 99 100 76 88 98 83
77 64 71 66 74 54 50 63 59 66 54 50 43 37 41 50 53 46 39 49 69 53 58 73 91 69 70 74 79 92 88 82 92 70 65 90 100 99 80 82 74 69 66 62
82 88 77 77 97 85 70 66 62 80 86 76 58 63 60 56 71 84 61 58 57 56 55 55 58 68 62 70 59 59 79 77 88 85 78 76 80 73 73 71 64 76 90 100
100 89 88 77 79 89 78 94 100 100 100 93 91 85 75 82 86 83 98 91 82 88 84 84 80 73 95 96 100 96 94 86 65 65 95 76 63 72 90 100 100 100 100 100
100 100 100 100 100 100 100 100 100 100 100 100 100 100 100 100 100 100 91 89 98 100 99 94 100 100 100 100 100 82 83 98 98 84 66 72 96 96 98 99 99 97 95 97
100 100 100 100 100 100 100 100 100 100 100 100 100 100 100 100 100 100 100 100 100 100 100 100 100 100 100 100 100 100 97 97 91 95 99 100 94 85 82 84 82 79 60 44
100 100 100 100 100 100 100 100 100 100 100 100 100 100 100 100 100 100 100 100 100 100 100 100 100 100 96 100 94 83 75 81 88 85 80 69 50 41 45 42 33 25 18 14
100 100 100 100 100 100 100 100 100 100 100 100 100 100 100 100 100 100 100 100 100 100 100 100 95 80 99 98 92 83 85 90 68 50 39 33 20 19 17 14 10 9 10 10
100 100 100 100 100 97 98 97 93 96 100 88 77 85 83 77 96 94 90 90 84 83 77 66 49 41 37 32 34 40 41 38 27 19 15 13 11 11 11 10 8 8 7 7
59 46 65 62 54 86 82 64 52 56 56 44 48 65 72 74 72 78 70 48 36 32 27 27 26 25 22 19 16 15 15 13 11 10 10 10 10 10 9 8 7 7 6 5
14 14 17 17 19 24 18 15 16 17 20 23 19 16 16 23 28 18 13 13 14 13 13 12 10 10 10 10 10 10 9 9 9 10 9 7 6 5 5 4 4 4 4 3
10 11 12 11 11 12 11 12 13 12 13 15 15 11 10 11 12 12 12 11 10 10 10 9 9 9 9 8 7 8 8 8 7 6 5 5 4 4 4 4 4 4 4 5
11 11 10 10 11 12 11 11 10 10 10 10 10 10 10 10 10 10 9 8 8 9 8 9 9 8 8 9 8 6 5 4 4 4 4 5 5 5 5 6 5 4 4 3
10 10 12 12 11 10 9 9 9 9 9 9 9 8 8 8 8 9 8 8 7 6 6 7 8 8 6 4 4 4 4 5 7 7 6 6 6 5 5 4 4 3 3 3
10 11 10 9 8 8 8 8 9 9 8 8 7 6 6 5 6 6 5 5 5 6 6 6 5 5 4 4 6 7 7 7 6 5 4 4 4 4 4 4 3 3 3 3
Wind_Speed
22 20 17 18 22 25 26 24 21 24 26 24 20 18 19 17 16 13 12 10 9 9 7 6 3 4 6 9 13 12 22 19 26 24 28 28 32 33 33 31 33 33 32 31
26 22 18 21 22 20 22 22 20 21 21 18 19 19 21 16 14 14 14 12 11 9 8 7 6 6 9 11 12 13 15 16 18 20 22 24 27 28 30 30 32 35 30 36
23 26 24 23 21 22 24 22 22 24 22 17 20 22 21 21 18 15 17 14 14 14 13 12 13 14 17 20 22 25 26 28 27 29 30 31 33 35 35 35 38 36 39 38
33 28 28 28 24 21 25 25 26 28 28 26 24 21 22 19 20 25 23 22 20 20 19 19 18 17 19 20 22 23 23 28 33 36 38 39 43 46 48 47 50 44 49 47
37 42 32 32 31 28 27 27 27 29 33 30 32 28 26 27 28 27 29 29 30 30 29 27 22 19 21 25 28 25 26 27 30 34 36 35 36 42 48 50 55 57 58 58
45 43 42 40 39 38 34 35 33 33 34 38 39 37 38 37 33 34 33 35 35 37 34 37 36 39 39 35 37 38 36 36 35 36 47 45 43 51 53 52 55 56 54 57
53 52 51 48 48 46 44 40 42 41 41 43 42 45 43 44 44 43 44 46 44 43 43 42 41 44 42 47 50 50 47 48 48 44 45 42 46 50 52 54 60 68 67 67
65 63 60 56 55 53 55 55 53 49 48 49 51 52 53 54 54 53 50 50 51 54 53 52 53 54 51 56 55 54 58 61 63 62 60 53 57 60 62 61 61 67 68 71
68 68 70 68 65 62 62 65 65 61 59 57 58 60 59 58 60 58 58 60 59 58 58 60 59 60 64 61 60 64 68 69 64 65 66 62 64 69 75 76 71 76 77 75
77 76 76 74 74 74 71 71 73 71 67 65 68 69 68 65 66 68 65 66 70 70 68 70 68 65 69 70 71 72 72 73 77 82 81 73 75 79 80 81 83 86 90 90
84 81 82 82 81 77 79 80 78 79 76 74 74 78 74 76 75 73 73 74 76 77 79 77 77 73 78 82 81 80 82 85 86 90 90 88 91 94 95 95 92 91 92 94
87 91 90 88 87 86 84 85 83 81 84 81 82 82 84 82 84 84 82 84 84 83 84 86 85 85 85 86 88 94 94 93 92 91 90 94 101 104 105 102 100 100 101 105
95 93 91 93 90 93 92 89 88 87 83 85 87 89 88 87 90 91 89 90 93 92 93 93 93 93 94 95 95 96 98 102 103 103 101 100 102 108 110 110 108 109 114 117
100 96 99 98 98 94 98 99 95 97 94 91 86 90 93 97 97 95 94 99 99 101 103 101 101 101 100 99 103 103 107 109 108 102 110 113 117 115 116 117 116 119 121 121
109 107 106 103 105 106 103 105 106 105 104 97 95 97 102 104 106 107 105 104 106 106 107 108 108 107 109 109 109 108 111 113 116 115 117 121 121 121 122 121 123 124 126 130
119 117 114 110 110 111 112 111 110 113 112 109 104 103 106 109 109 113 115 114 112 114 114 115 113 116 122 119 117 117 116 118 119 120 123 124 126 132 135 135 136 139 140 138
126 124 124 121 121 120 119 120 121 120 120 120 114 111 111 115 118 116 119 120 120 120 120 119 123 125 129 129 126 125 123 127 131 128 125 130 133 137 138 138 142 145 147 148
134 133 132 129 128 128 129 128 129 129 128 128 124 119 119 120 121 123 124 127 127 130 130 130 130 132 136 135 133 135 132 131 133 134 135 139 142 145 147 149 151 144 136 134
139 137 136 137 136 135 137 137 136 135 134 134 131 130 130 127 126 128 129 130 133 136 136 137 136 136 137 138 141 142 140 138 139 141 143 140 136 137 136 133 132 132 132 131
146 146 145 143 146 146 144 144 145 144 142 141 139 140 136 138 137 136 138 139 139 142 140 143 142 138 138 140 142 141 143 145 144 140 141 139 134 131 127 125 122 117 113 111
150 150 152 149 148 148 148 146 143 142 143 140 134 133 137 140 140 138 139 142 143 143 141 141 139 139 139 139 141 143 141 140 138 130 124 120 115 110 106 105 104 102 99 99
137 136 138 137 138 142 141 138 135 135 138 131 127 132 135 139 135 134 134 133 132 128 126 126 127 126 121 118 119 120 120 119 117 113 111 108 104 101 98 95 94 94 93 92
119 120 120 121 122 122 121 118 117 118 119 122 121 118 117 117 118 118 115 114 114 112 109 111 109 104 105 106 106 106 103 101 100 102 104 97 93 90 87 84 84 82 81 83
103 103 104 106 106 106 104 103 106 106 106 108 111 108 104 105 106 106 103 103 103 100 102 102 98 97 98 96 95 93 93 96 95 92 88 85 82 79 79 81 80 78 76 75
95 97 95 94 96 97 97 97 96 97 98 98 98 99 99 96 95 95 96 94 89 91 88 88 89 90 90 90 88 85 83 80 78 77 76 76 77 76 74 75 74 71 66 64
84 84 85 88 89 89 86 84 84 86 86 85 85 84 82 82 83 85 83 81 80 77 75 77 78 78 77 74 73 73 71 70 70 70 70 70 70 71 70 70 69 65 60 58
73 74 74 74 73 72 72 72 72 72 73 71 70 71 71 71 72 73 70 67 66 66 67 66 65 66 64 62 62 65 66 65 63 62 63 62 63 63 62 60 61 59 55 51
Wind_Direction
322 336 350 359 3 6 11 21 36 28 34 39 48 56 48 43 41 44 43 44 45 53 43 49 31 5 281 287 287 290 273 273 273 273 275 274 276 278 279 282 281 277 276 276
313 311 312 328 335 335 340 348 356 2 7 10 17 11 16 36 51 40 34 16 357 342 334 330 317 295 273 270 277 272 271 274 275 273 274 271 273 271 272 272 273 275 278 274
302 305 307 308 319 322 325 321 327 327 335 344 339 338 338 347 352 357 5 5 357 357 355 346 337 309 294 288 285 283 281 280 279 280 281 281 282 283 281 279 277 273 279 275
292 294 292 296 298 302 307 308 308 307 311 318 317 314 318 321 322 323 324 328 325 321 323 323 327 314 309 306 291 292 295 295 290 284 280 280 285 284 281 281 278 278 278 280
287 287 287 289 283 285 285 291 296 299 298 302 307 304 302 307 311 313 315 309 309 310 310 308 309 308 303 307 305 300 292 296 301 300 294 290 294 297 294 290 291 284 280 281
284 285 281 285 283 281 285 284 281 287 288 294 298 299 297 298 300 304 302 301 299 299 300 301 301 303 301 302 300 296 297 295 297 297 293 299 304 293 298 298 295 291 290 290
279 279 278 278 277 278 279 280 278 278 284 288 291 293 293 294 293 295 296 297 297 294 291 295 296 295 293 291 291 292 293 293 296 295 295 301 291 292 292 293 294 292 295 294
275 277 276 276 277 275 278 275 275 276 277 279 283 287 289 290 292 292 293 293 296 292 291 291 290 288 291 288 290 288 286 291 292 292 292 293 296 291 295 290 291 289 290 290
270 270 273 273 274 278 278 277 278 278 277 280 281 284 285 285 285 287 288 291 290 288 286 289 286 287 290 285 289 290 291 287 289 292 290 288 290 294 290 290 288 289 293 294
269 266 267 269 272 272 273 277 278 278 276 276 278 283 281 282 281 280 280 283 283 287 287 287 286 285 286 286 286 284 282 284 289 286 290 296 291 288 291 289 287 289 292 295
267 267 267 266 268 269 272 274 276 278 276 277 278 279 280 279 280 279 280 282 280 280 283 283 284 284 286 288 287 286 285 286 286 287 288 289 289 288 287 293 294 292 290 288
266 268 269 266 266 265 272 272 271 276 275 274 273 276 276 277 277 279 279 281 280 280 279 279 281 282 282 282 285 286 286 283 284 285 287 286 284 287 286 286 289 290 291 290
266 264 267 265 266 265 268 270 272 274 269 270 275 272 274 277 277 278 276 277 280 280 279 278 280 282 282 283 284 283 284 284 282 282 283 283 283 283 284 284 286 286 286 287
261 265 263 267 261 266 266 267 270 270 271 265 270 272 271 271 272 275 274 274 274 277 278 277 277 278 278 279 279 279 281 282 283 283 281 279 279 281 283 283 284 288 291 291
262 263 264 265 265 264 266 266 270 271 271 269 271 267 270 271 272 272 272 272 272 274 278 277 278 277 278 278 279 279 279 281 283 283 281 284 280 281 285 286 287 287 289 290
264 264 264 265 263 265 267 268 267 269 269 270 270 266 267 271 272 274 272 273 274 272 275 277 276 276 278 280 281 281 282 281 283 282 280 283 282 282 285 284 285 287 286 286
264 265 265 266 265 265 265 266 268 269 271 269 271 269 269 269 270 272 274 275 274 274 274 276 277 277 278 280 279 282 282 282 282 284 284 283 282 283 283 283 284 285 285 285
264 265 265 266 266 267 268 269 270 270 270 271 271 272 269 269 270 270 273 275 275 275 275 277 277 279 281 282 282 281 281 280 281 283 285 285 284 283 282 282 284 285 284 284
264 265 266 265 266 267 268 269 269 270 270 271 271 271 271 271 272 273 273 274 275 276 277 279 279 278 278 279 281 282 282 282 283 284 283 282 283 283 282 282 281 282 283 283
265 265 264 266 265 265 266 268 269 270 270 271 271 272 272 273 272 273 274 274 275 277 277 278 277 277 277 278 279 280 280 280 281 282 282 283 284 283 282 283 284 284 284 284
266 268 267 267 269 269 269 271 271 271 272 272 271 272 272 271 271 273 272 273 274 275 275 274 275 276 277 279 280 281 282 281 282 282 283 284 285 285 285 284 283 284 284 283
265 266 267 268 269 269 270 271 271 272 272 272 273 275 275 274 274 274 274 274 274 275 276 276 275 276 278 279 281 282 281 281 283 285 287 286 285 283 284 286 286 285 283 284
264 266 266 266 267 271 270 267 270 271 271 271 272 272 271 271 274 274 274 276 277 277 278 278 278 281 281 280 280 281 282 284 287 287 286 287 289 290 289 287 286 286 284 282
264 264 267 267 266 267 267 270 271 269 269 270 273 273 273 274 275 276 277 277 278 280 279 280 282 282 282 281 281 284 285 284 284 287 289 289 289 288 287 285 284 285 287 288
264 266 267 267 268 269 270 270 271 272 272 272 273 274 275 275 276 278 277 277 278 278 280 281 281 282 283 284 283 283 285 287 287 288 288 287 286 286 287 287 287 289 291 290
264 265 266 267 268 270 271 272 273 272 273 273 275 275 275 275 275 275 277 279 279 282 283 281 281 281 281 283 284 284 286 288 287 285 285 285 287 287 287 289 291 292 291 291
263 264 266 267 268 270 271 272 272 272 273 274 274 275 275 276 278 279 280 281 282 282 282 282 281 280 282 285 287 286 284 284 286 286 286 285 284 286 287 288 288 291 293 293